,,Stat6,,Stat2,,Stat8,,Stat9,,Stat10,,Wind1,,Wind1,
time,status,PA1M_AVG,status,PR1M_SUM,status,RH1M_AVG,status,SR1M_AVG,status,TA1M_AVG,status,W1dAve1m,status,W1sAve1m,
2009-01-02, 00:00:00,VALID,917.136,VALID,0.2,VALID,100,VALID,-0.0679233,VALID,19.2818,VALID,338,VALID,0,
2009-01-02, 00:01:00,VALID,917.115,VALID,0,VALID,100,VALID,-0.0679233,VALID,19.2783,VALID,338,VALID,0,
2009-01-02, 00:02:00,VALID,917.125,VALID,0,VALID,100,VALID,-0.0339617,VALID,19.2815,VALID,338,VALID,0,
2009-01-02, 00:03:00,VALID,917.121,VALID,0.2,VALID,100,VALID,-0.0509425,VALID,19.2915,VALID,338,VALID,0,
2009-01-02, 00:04:00,VALID,917.131,VALID,0,VALID,100,VALID,-0.0509425,VALID,19.301,VALID,338,VALID,0,
2009-01-02, 00:05:00,VALID,917.148,VALID,0,VALID,100,VALID,-0.0849042,VALID,19.2875,VALID,338,VALID,0,
2009-01-02, 00:06:00,VALID,917.125,VALID,0,VALID,100,VALID,-0.0679233,VALID,19.2975,VALID,264,VALID,0,
2009-01-02, 00:07:00,VALID,917.134,VALID,0,VALID,100,VALID,-0.0509425,VALID,19.294,VALID,242,VALID,0,
2009-01-02, 00:08:00,VALID,917.135,VALID,0,VALID,100,VALID,-0.0169808,VALID,19.307,VALID,242,VALID,0,
2009-01-02, 00:09:00,VALID,917.114,VALID,0,VALID,100,VALID,-0.0509425,VALID,19.301,VALID,242,VALID,0,
2009-01-02, 00:10:00,VALID,917.115,VALID,0.2,VALID,100,VALID,-0.0339617,VALID,19.3005,VALID,242,VALID,0,
2009-01-02, 00:11:00,VALID,917.115,VALID,0,VALID,100,VALID,-0.0169808,VALID,19.3007,VALID,242,VALID,0,
2009-01-02, 00:12:00,VALID,917.131,VALID,0,VALID,100,VALID,-0.0679233,VALID,19.3107,VALID,242,VALID,0,
2009-01-02, 00:13:00,VALID,917.119,VALID,0,VALID,100,VALID,0,VALID,19.3167,VALID,256,VALID,0,
2009-01-02, 00:14:00,VALID,917.101,VALID,0,VALID,100,VALID,-0.0169808,VALID,19.3392,VALID,348,VALID,0,
2009-01-02, 00:15:00,VALID,917.116,VALID,0,VALID,100,VALID,-0.0339617,VALID,19.3524,VALID,348,VALID,0,
2009-01-02, 00:16:00,VALID,917.114,VALID,0,VALID,100,VALID,-0.0509425,VALID,19.3561,VALID,350,VALID,0,
2009-01-02, 00:17:00,VALID,917.109,VALID,0,VALID,100,VALID,-0.101885,VALID,19.3559,VALID,359,VALID,0,
2009-01-02, 00:18:00,VALID,917.12,VALID,0,VALID,100,VALID,-0.0679233,VALID,19.3492,VALID,359,VALID,0,
2009-01-02, 00:19:00,VALID,917.107,VALID,0,VALID,100,VALID,-0.0509425,VALID,19.3591,VALID,359,VALID,0,
2009-01-02, 00:20:00,VALID,917.088,VALID,0,VALID,100,VALID,-0.0339617,VALID,19.3367,VALID,359,VALID,0,
2009-01-02, 00:21:00,VALID,917.049,VALID,0,VALID,100,VALID,-0.0509425,VALID,19.307,VALID,359,VALID,0,
2009-01-02, 00:22:00,VALID,917.033,VALID,0,VALID,100,VALID,-0.0679233,VALID,19.2775,VALID,4,VALID,0,
2009-01-02, 00:23:00,VALID,916.996,VALID,0,VALID,100,VALID,-0.0849042,VALID,19.294,VALID,19,VALID,0.0012718,
2009-01-02, 00:24:00,VALID,916.993,VALID,0,VALID,100,VALID,-0.0679233,VALID,19.32,VALID,20,VALID,0,
2009-01-02, 00:25:00,VALID,916.972,VALID,0,VALID,100,VALID,-0.101885,VALID,19.307,VALID,30,VALID,0,
2009-01-02, 00:26:00,VALID,916.989,VALID,0,VALID,100,VALID,-0.101885,VALID,19.281,VALID,43,VALID,0,
2009-01-02, 00:27:00,VALID,917.008,VALID,0,VALID,100,VALID,-0.0849042,VALID,19.3107,VALID,47,VALID,0,
2009-01-02, 00:28:00,VALID,917.004,VALID,0,VALID,100,VALID,-0.0849042,VALID,19.3,VALID,46,VALID,0,
2009-01-02, 00:29:00,VALID,917,VALID,0,VALID,100,VALID,-0.0509425,VALID,19.3037,VALID,42,VALID,0,
2009-01-02, 00:30:00,VALID,916.993,VALID,0,VALID,100,VALID,-0.0849042,VALID,19.2972,VALID,41,VALID,0,
2009-01-02, 00:31:00,VALID,916.997,VALID,0,VALID,100,VALID,-0.0849042,VALID,19.2905,VALID,41,VALID,0,
2009-01-02, 00:32:00,VALID,917.018,VALID,0,VALID,100,VALID,-0.0679233,VALID,19.304,VALID,41,VALID,0,
2009-01-02, 00:33:00,VALID,917.005,VALID,0,VALID,100,VALID,-0.0679233,VALID,19.291,VALID,41,VALID,0,
2009-01-02, 00:34:00,VALID,917.008,VALID,0,VALID,100,VALID,-0.0679233,VALID,19.2616,VALID,41,VALID,0,
2009-01-02, 00:35:00,VALID,917.017,VALID,0,VALID,100,VALID,-0.0849042,VALID,19.2458,VALID,41,VALID,0,
2009-01-02, 00:36:00,VALID,917.005,VALID,0,VALID,100,VALID,-0.0849042,VALID,19.2396,VALID,61,VALID,0,
2009-01-02, 00:37:00,VALID,917.014,VALID,0,VALID,100,VALID,-0.0679233,VALID,19.2094,VALID,61,VALID,0,
2009-01-02, 00:38:00,VALID,917.004,VALID,0,VALID,100,VALID,-0.0849042,VALID,19.2201,VALID,61,VALID,0,
2009-01-02, 00:39:00,VALID,916.972,VALID,0,VALID,100,VALID,-0.0679233,VALID,19.2129,VALID,61,VALID,0,
2009-01-02, 00:40:00,VALID,916.979,VALID,0,VALID,100,VALID,-0.0509425,VALID,19.2127,VALID,61,VALID,0,
2009-01-02, 00:41:00,VALID,916.966,VALID,0,VALID,100,VALID,-0.0339617,VALID,19.2094,VALID,61,VALID,0,
2009-01-02, 00:42:00,VALID,916.954,VALID,0,VALID,100,VALID,0,VALID,19.2291,VALID,41,VALID,0,
2009-01-02, 00:43:00,VALID,916.957,VALID,0,VALID,100,VALID,-0.0339617,VALID,19.2516,VALID,17,VALID,0,
2009-01-02, 00:44:00,VALID,916.935,VALID,0.2,VALID,100,VALID,-0.0849042,VALID,19.2813,VALID,4,VALID,0,
2009-01-02, 00:45:00,VALID,916.925,VALID,0,VALID,100,VALID,-0.0679233,VALID,19.291,VALID,5,VALID,0,
2009-01-02, 00:46:00,VALID,916.922,VALID,0,VALID,100,VALID,-0.101885,VALID,19.294,VALID,6,VALID,0,
2009-01-02, 00:47:00,VALID,916.919,VALID,0,VALID,100,VALID,-0.0849042,VALID,19.2783,VALID,6,VALID,0,
2009-01-02, 00:48:00,VALID,916.91,VALID,0,VALID,100,VALID,-0.0679233,VALID,19.2808,VALID,293,VALID,0,
2009-01-02, 00:49:00,VALID,916.88,VALID,0,VALID,100,VALID,-0.0339617,VALID,19.2873,VALID,222,VALID,0,
2009-01-02, 00:50:00,VALID,916.867,VALID,0,VALID,100,VALID,-0.0169808,VALID,19.294,VALID,185,VALID,0,
2009-01-02, 00:51:00,VALID,916.851,VALID,0,VALID,100,VALID,-0.0679233,VALID,19.307,VALID,185,VALID,0,
2009-01-02, 00:52:00,VALID,916.829,VALID,0,VALID,100,VALID,-0.0509425,VALID,19.3035,VALID,185,VALID,0,
2009-01-02, 00:53:00,VALID,916.814,VALID,0,VALID,100,VALID,-0.101885,VALID,19.3037,VALID,185,VALID,0,
2009-01-02, 00:54:00,VALID,916.816,VALID,0,VALID,100,VALID,-0.0679233,VALID,19.3035,VALID,154,VALID,0,
2009-01-02, 00:55:00,VALID,916.805,VALID,0,VALID,100,VALID,-0.0509425,VALID,19.3329,VALID,29,VALID,0,
2009-01-02, 00:56:00,VALID,916.812,VALID,0,VALID,100,VALID,-0.0679233,VALID,19.3329,VALID,14,VALID,0,
2009-01-02, 00:57:00,VALID,916.794,VALID,0,VALID,100,VALID,-0.101885,VALID,19.3165,VALID,13,VALID,0,
2009-01-02, 00:58:00,VALID,916.777,VALID,0,VALID,100,VALID,-0.101885,VALID,19.3237,VALID,16,VALID,0,
2009-01-02, 00:59:00,VALID,916.773,VALID,0,VALID,100,VALID,-0.0339617,VALID,19.297,VALID,14,VALID,0,
2009-01-02, 01:00:00,VALID,916.784,VALID,0,VALID,100,VALID,-0.0679233,VALID,19.2745,VALID,13,VALID,0,
2009-01-02, 01:01:00,VALID,916.767,VALID,0,VALID,100,VALID,-0.0339617,VALID,19.2586,VALID,13,VALID,0,
2009-01-02, 01:02:00,VALID,916.75,VALID,0,VALID,100,VALID,-0.0509425,VALID,19.2391,VALID,17,VALID,0,
2009-01-02, 01:03:00,VALID,916.758,VALID,0,VALID,100,VALID,-0.0849042,VALID,19.2226,VALID,9,VALID,0,
2009-01-02, 01:04:00,VALID,916.75,VALID,0,VALID,100,VALID,-0.101885,VALID,19.2196,VALID,30,VALID,0,
2009-01-02, 01:05:00,VALID,916.735,VALID,0,VALID,100,VALID,-0.101885,VALID,19.2393,VALID,28,VALID,0.00533537,
2009-01-02, 01:06:00,VALID,916.739,VALID,0,VALID,100,VALID,-0.101885,VALID,19.2224,VALID,17,VALID,0,
2009-01-02, 01:07:00,VALID,916.734,VALID,0,VALID,100,VALID,-0.0509425,VALID,19.2229,VALID,11,VALID,0.00130208,
2009-01-02, 01:08:00,VALID,916.708,VALID,0,VALID,100,VALID,-0.101885,VALID,19.2196,VALID,30,VALID,0,
2009-01-02, 01:09:00,VALID,916.703,VALID,0,VALID,100,VALID,-0.101885,VALID,19.2161,VALID,4,VALID,0,
2009-01-02, 01:10:00,VALID,916.696,VALID,0,VALID,100,VALID,-0.101885,VALID,19.2069,VALID,15,VALID,0,
2009-01-02, 01:11:00,VALID,916.698,VALID,0,VALID,100,VALID,-0.0849042,VALID,19.1999,VALID,10,VALID,0,
2009-01-02, 01:12:00,VALID,916.679,VALID,0,VALID,100,VALID,-0.0849042,VALID,19.1932,VALID,9,VALID,0.00952744,
2009-01-02, 01:13:00,VALID,916.663,VALID,0,VALID,100,VALID,-0.0679233,VALID,19.1869,VALID,11,VALID,0.0225074,
2009-01-02, 01:14:00,VALID,916.652,VALID,0,VALID,100,VALID,-0.0849042,VALID,19.1707,VALID,2,VALID,0.0383003,
2009-01-02, 01:15:00,VALID,916.639,VALID,0,VALID,100,VALID,-0.0339617,VALID,19.1705,VALID,2,VALID,0.0666921,
2009-01-02, 01:16:00,VALID,916.595,VALID,0,VALID,100,VALID,-0.0849042,VALID,19.1937,VALID,356,VALID,0.0298295,
2009-01-02, 01:17:00,VALID,916.565,VALID,0,VALID,100,VALID,-0.0509425,VALID,19.1939,VALID,8,VALID,0.437137,
2009-01-02, 01:18:00,VALID,916.558,VALID,0,VALID,100,VALID,-0.101885,VALID,19.1932,VALID,2,VALID,0.00114329,
2009-01-02, 01:19:00,VALID,916.547,VALID,0,VALID,100,VALID,-0.0679233,VALID,19.1964,VALID,28,VALID,0,
2009-01-02, 01:20:00,VALID,916.553,VALID,0,VALID,100,VALID,-0.0679233,VALID,19.1932,VALID,14,VALID,0,
2009-01-02, 01:21:00,VALID,916.559,VALID,0,VALID,100,VALID,-0.0679233,VALID,19.1867,VALID,358,VALID,0,
2009-01-02, 01:22:00,VALID,916.572,VALID,0,VALID,100,VALID,-0.0679233,VALID,19.1927,VALID,348,VALID,0,
2009-01-02, 01:23:00,VALID,916.561,VALID,0,VALID,100,VALID,0,VALID,19.2017,VALID,323,VALID,0,
2009-01-02, 01:24:00,VALID,916.563,VALID,0,VALID,100,VALID,0.0169808,VALID,19.1952,VALID,318,VALID,0,
2009-01-02, 01:25:00,VALID,916.573,VALID,0,VALID,100,VALID,0.0509425,VALID,19.1982,VALID,304,VALID,0.0138081,
2009-01-02, 01:26:00,VALID,916.548,VALID,0,VALID,100,VALID,0.0169808,VALID,19.1917,VALID,304,VALID,0,
2009-01-02, 01:27:00,VALID,916.531,VALID,0,VALID,100,VALID,0.0679233,VALID,19.2184,VALID,15,VALID,0.00133384,
2009-01-02, 01:28:00,VALID,916.5,VALID,0,VALID,100,VALID,0.0509425,VALID,19.2082,VALID,23,VALID,0,
2009-01-02, 01:29:00,VALID,916.476,VALID,0,VALID,100,VALID,0.0339617,VALID,19.2084,VALID,33,VALID,0.0563616,
2009-01-02, 01:30:00,VALID,916.462,VALID,0,VALID,100,VALID,0.0509425,VALID,19.1985,VALID,17,VALID,0.0814986,
2009-01-02, 01:31:00,VALID,916.446,VALID,0,VALID,100,VALID,0.0509425,VALID,19.1985,VALID,10,VALID,0.00292969,
2009-01-02, 01:32:00,VALID,916.424,VALID,0,VALID,100,VALID,0.0509425,VALID,19.195,VALID,12,VALID,0,
2009-01-02, 01:33:00,VALID,916.422,VALID,0,VALID,100,VALID,0.0169808,VALID,19.2052,VALID,5,VALID,0,
2009-01-02, 01:34:00,VALID,916.412,VALID,0,VALID,100,VALID,0.0509425,VALID,19.2179,VALID,17,VALID,0,
2009-01-02, 01:35:00,VALID,916.404,VALID,0,VALID,100,VALID,0.0169808,VALID,19.2314,VALID,6,VALID,0.00581395,
2009-01-02, 01:36:00,VALID,916.401,VALID,0,VALID,100,VALID,0.0339617,VALID,19.2209,VALID,21,VALID,0.00218023,
2009-01-02, 01:37:00,VALID,916.408,VALID,0.2,VALID,100,VALID,0,VALID,19.2184,VALID,32,VALID,0,
2009-01-02, 01:38:00,VALID,916.42,VALID,0,VALID,100,VALID,-0.0169808,VALID,19.2094,VALID,22,VALID,0.0475543,
2009-01-02, 01:39:00,VALID,916.414,VALID,0,VALID,100,VALID,-0.0339617,VALID,19.2092,VALID,21,VALID,0.0137153,
2009-01-02, 01:40:00,VALID,916.413,VALID,0.2,VALID,100,VALID,-0.0509425,VALID,19.2129,VALID,19,VALID,0,
2009-01-02, 01:41:00,VALID,916.398,VALID,0,VALID,100,VALID,-0.0509425,VALID,19.2032,VALID,5,VALID,0,
2009-01-02, 01:42:00,VALID,916.386,VALID,0,VALID,100,VALID,-0.0509425,VALID,19.2226,VALID,8,VALID,0,
2009-01-02, 01:43:00,VALID,916.388,VALID,0.2,VALID,100,VALID,-0.0509425,VALID,19.2289,VALID,11,VALID,0.0322027,
2009-01-02, 01:44:00,VALID,916.382,VALID,0,VALID,100,VALID,-0.0339617,VALID,19.2291,VALID,9,VALID,0,
2009-01-02, 01:45:00,VALID,916.369,VALID,0,VALID,100,VALID,-0.0339617,VALID,19.2291,VALID,12,VALID,0.0012718,
2009-01-02, 01:46:00,VALID,916.357,VALID,0,VALID,100,VALID,-0.0509425,VALID,19.2062,VALID,19,VALID,0,
2009-01-02, 01:47:00,VALID,916.347,VALID,0,VALID,100,VALID,-0.0679233,VALID,19.2067,VALID,9,VALID,0,
2009-01-02, 01:48:00,VALID,916.325,VALID,0,VALID,100,VALID,-0.0679233,VALID,19.2002,VALID,5,VALID,0.00363372,
2009-01-02, 01:49:00,VALID,916.301,VALID,0.2,VALID,100,VALID,-0.0169808,VALID,19.2029,VALID,6,VALID,0.294695,
2009-01-02, 01:50:00,VALID,916.29,VALID,0,VALID,100,VALID,-0.0849042,VALID,19.1934,VALID,14,VALID,0.0136719,
2009-01-02, 01:51:00,VALID,916.255,VALID,0,VALID,100,VALID,-0.0509425,VALID,19.1967,VALID,20,VALID,0.00334821,
2009-01-02, 01:52:00,VALID,916.219,VALID,0,VALID,100,VALID,-0.0509425,VALID,19.1932,VALID,13,VALID,0.305575,
2009-01-02, 01:53:00,VALID,916.199,VALID,0,VALID,100,VALID,-0.0169808,VALID,19.1899,VALID,26,VALID,0.358803,
2009-01-02, 01:54:00,VALID,916.207,VALID,0,VALID,100,VALID,-0.0849042,VALID,19.1937,VALID,19,VALID,0.121548,
2009-01-02, 01:55:00,VALID,916.196,VALID,0,VALID,100,VALID,-0.0849042,VALID,19.1874,VALID,10,VALID,0.752907,
2009-01-02, 01:56:00,VALID,916.183,VALID,0,VALID,100,VALID,-0.0849042,VALID,19.1772,VALID,17,VALID,0.385231,
2009-01-02, 01:57:00,VALID,916.162,VALID,0,VALID,100,VALID,-0.0169808,VALID,19.1742,VALID,12,VALID,0.35174,
2009-01-02, 01:58:00,VALID,916.166,VALID,0,VALID,100,VALID,-0.0679233,VALID,19.1637,VALID,15,VALID,0.155401,
2009-01-02, 01:59:00,VALID,916.159,VALID,0,VALID,100,VALID,-0.0679233,VALID,19.1707,VALID,350,VALID,0.140625,
2009-01-02, 02:00:00,VALID,916.159,VALID,0,VALID,100,VALID,-0.0679233,VALID,19.1805,VALID,16,VALID,0.120508,
2009-01-02, 02:01:00,VALID,916.142,VALID,0,VALID,100,VALID,-0.0679233,VALID,19.1867,VALID,8,VALID,0.0732887,
2009-01-02, 02:02:00,VALID,916.103,VALID,0,VALID,100,VALID,-0.0849042,VALID,19.1904,VALID,19,VALID,0.503516,
2009-01-02, 02:03:00,VALID,916.085,VALID,0,VALID,100,VALID,-0.0849042,VALID,19.1712,VALID,12,VALID,0.218555,
2009-01-02, 02:04:00,VALID,916.071,VALID,0,VALID,100,VALID,-0.0339617,VALID,19.1577,VALID,3,VALID,0.198518,
2009-01-02, 02:05:00,VALID,916.045,VALID,0,VALID,100,VALID,-0.0679233,VALID,19.1612,VALID,9,VALID,0.181021,
2009-01-02, 02:06:00,VALID,916.023,VALID,0,VALID,100,VALID,-0.0679233,VALID,19.1615,VALID,11,VALID,0.120754,
2009-01-02, 02:07:00,VALID,916.031,VALID,0,VALID,100,VALID,-0.0679233,VALID,19.1642,VALID,19,VALID,0.0175347,
2009-01-02, 02:08:00,VALID,916.053,VALID,0,VALID,100,VALID,-0.0339617,VALID,19.1545,VALID,11,VALID,0.00651042,
2009-01-02, 02:09:00,VALID,916.057,VALID,0,VALID,100,VALID,-0.0509425,VALID,19.1575,VALID,25,VALID,0.0346799,
2009-01-02, 02:10:00,VALID,916.029,VALID,0,VALID,100,VALID,-0.0679233,VALID,19.1543,VALID,5,VALID,0.015439,
2009-01-02, 02:11:00,VALID,916.015,VALID,0,VALID,100,VALID,-0.0169808,VALID,19.1605,VALID,56,VALID,0,
2009-01-02, 02:12:00,VALID,916.004,VALID,0,VALID,100,VALID,-0.0509425,VALID,19.1932,VALID,34,VALID,0,
2009-01-02, 02:13:00,VALID,915.986,VALID,0,VALID,100,VALID,-0.0339617,VALID,19.1865,VALID,34,VALID,0,
2009-01-02, 02:14:00,VALID,915.97,VALID,0,VALID,100,VALID,-0.0679233,VALID,19.1937,VALID,35,VALID,0,
2009-01-02, 02:15:00,VALID,915.948,VALID,0,VALID,100,VALID,-0.0679233,VALID,19.1807,VALID,24,VALID,0,
2009-01-02, 02:16:00,VALID,915.937,VALID,0,VALID,100,VALID,-0.0849042,VALID,19.1672,VALID,27,VALID,0,
2009-01-02, 02:17:00,VALID,915.921,VALID,0,VALID,100,VALID,-0.0679233,VALID,19.1645,VALID,27,VALID,0,
2009-01-02, 02:18:00,VALID,915.92,VALID,0,VALID,100,VALID,-0.0679233,VALID,19.1513,VALID,27,VALID,0,
2009-01-02, 02:19:00,VALID,915.905,VALID,0,VALID,100,VALID,-0.0849042,VALID,19.148,VALID,27,VALID,0,
2009-01-02, 02:20:00,VALID,915.878,VALID,0,VALID,100,VALID,-0.101885,VALID,19.1575,VALID,18,VALID,0,
2009-01-02, 02:21:00,VALID,915.836,VALID,0,VALID,100,VALID,-0.0679233,VALID,19.164,VALID,17,VALID,0,
2009-01-02, 02:22:00,VALID,915.799,VALID,0,VALID,100,VALID,-0.101885,VALID,19.1807,VALID,17,VALID,0,
2009-01-02, 02:23:00,VALID,915.771,VALID,0,VALID,100,VALID,-0.0679233,VALID,19.1742,VALID,20,VALID,0,
2009-01-02, 02:24:00,VALID,915.736,VALID,0,VALID,100,VALID,-0.0679233,VALID,19.1612,VALID,21,VALID,0,
2009-01-02, 02:25:00,VALID,915.707,VALID,0,VALID,100,VALID,-0.0679233,VALID,19.1353,VALID,16,VALID,0,
2009-01-02, 02:26:00,VALID,915.685,VALID,0,VALID,100,VALID,-0.0679233,VALID,19.1123,VALID,26,VALID,0,
2009-01-02, 02:27:00,VALID,915.649,VALID,0,VALID,100,VALID,-0.0509425,VALID,19.1024,VALID,18,VALID,0,
2009-01-02, 02:28:00,VALID,915.629,VALID,0,VALID,100,VALID,-0.0509425,VALID,19.0929,VALID,24,VALID,0.344893,
2009-01-02, 02:29:00,VALID,915.615,VALID,0,VALID,100,VALID,0,VALID,19.0699,VALID,15,VALID,0.484747,
2009-01-02, 02:30:00,VALID,915.624,VALID,0,VALID,100,VALID,-0.0169808,VALID,19.0535,VALID,12,VALID,0,
2009-01-02, 02:31:00,VALID,915.61,VALID,0,VALID,100,VALID,-0.0169808,VALID,19.0567,VALID,12,VALID,0,
2009-01-02, 02:32:00,VALID,915.576,VALID,0,VALID,100,VALID,-0.0169808,VALID,19.0604,VALID,23,VALID,0,
2009-01-02, 02:33:00,VALID,915.547,VALID,0,VALID,100,VALID,-0.0339617,VALID,19.0537,VALID,15,VALID,0,
2009-01-02, 02:34:00,VALID,915.535,VALID,0,VALID,100,VALID,-0.0339617,VALID,19.034,VALID,11,VALID,0,
2009-01-02, 02:35:00,VALID,915.527,VALID,0,VALID,100,VALID,-0.0509425,VALID,19.0243,VALID,12,VALID,0.203472,
2009-01-02, 02:36:00,VALID,915.515,VALID,0,VALID,100,VALID,-0.0509425,VALID,19.0312,VALID,10,VALID,0.105469,
2009-01-02, 02:37:00,VALID,915.486,VALID,0,VALID,100,VALID,-0.0339617,VALID,19.0275,VALID,21,VALID,0.0301599,
2009-01-02, 02:38:00,VALID,915.448,VALID,0,VALID,100,VALID,-0.0169808,VALID,19.0178,VALID,20,VALID,0.00799851,
2009-01-02, 02:39:00,VALID,915.44,VALID,0,VALID,100,VALID,0,VALID,19.0213,VALID,22,VALID,0.0543155,
2009-01-02, 02:40:00,VALID,915.441,VALID,0,VALID,100,VALID,-0.0169808,VALID,19.031,VALID,11,VALID,0.0554315,
2009-01-02, 02:41:00,VALID,915.455,VALID,0,VALID,100,VALID,-0.0509425,VALID,19.0275,VALID,353,VALID,0.0330669,
2009-01-02, 02:42:00,VALID,915.458,VALID,0,VALID,100,VALID,-0.0339617,VALID,19.0305,VALID,5,VALID,0,
2009-01-02, 02:43:00,VALID,915.428,VALID,0,VALID,100,VALID,-0.0169808,VALID,19.0342,VALID,14,VALID,0.0677689,
2009-01-02, 02:44:00,VALID,915.43,VALID,0,VALID,100,VALID,-0.0339617,VALID,19.0277,VALID,23,VALID,0.00342988,
2009-01-02, 02:45:00,VALID,915.432,VALID,0,VALID,100,VALID,-0.0169808,VALID,19.0407,VALID,358,VALID,0,
2009-01-02, 02:46:00,VALID,915.439,VALID,0,VALID,100,VALID,0,VALID,19.0407,VALID,313,VALID,0,
2009-01-02, 02:47:00,VALID,915.435,VALID,0,VALID,100,VALID,-0.0169808,VALID,19.0405,VALID,291,VALID,0,
2009-01-02, 02:48:00,VALID,915.41,VALID,0,VALID,100,VALID,-0.0169808,VALID,19.0342,VALID,316,VALID,0,
2009-01-02, 02:49:00,VALID,915.377,VALID,0,VALID,100,VALID,0,VALID,19.0335,VALID,360,VALID,0.0446948,
2009-01-02, 02:50:00,VALID,915.344,VALID,0,VALID,100,VALID,-0.0169808,VALID,19.024,VALID,24,VALID,0,
2009-01-02, 02:51:00,VALID,915.313,VALID,0,VALID,100,VALID,0,VALID,19.0338,VALID,24,VALID,0,
2009-01-02, 02:52:00,VALID,915.285,VALID,0,VALID,100,VALID,-0.0509425,VALID,19.0444,VALID,26,VALID,0,
2009-01-02, 02:53:00,VALID,915.249,VALID,0,VALID,100,VALID,-0.118866,VALID,19.0324,VALID,22,VALID,0,
2009-01-02, 02:54:00,VALID,915.234,VALID,0,VALID,100,VALID,-0.101885,VALID,19.0292,VALID,25,VALID,0,
2009-01-02, 02:55:00,VALID,915.218,VALID,0,VALID,100,VALID,-0.101885,VALID,19.0285,VALID,22,VALID,0,
2009-01-02, 02:56:00,VALID,915.203,VALID,0,VALID,100,VALID,-0.135847,VALID,19.0322,VALID,24,VALID,0,
2009-01-02, 02:57:00,VALID,915.173,VALID,0,VALID,100,VALID,-0.101885,VALID,19.019,VALID,25,VALID,0,
2009-01-02, 02:58:00,VALID,915.156,VALID,0,VALID,100,VALID,-0.118866,VALID,19.0257,VALID,27,VALID,0,
2009-01-02, 02:59:00,VALID,915.135,VALID,0,VALID,100,VALID,-0.118866,VALID,19.0324,VALID,21,VALID,0,
2009-01-02, 03:00:00,VALID,915.105,VALID,0,VALID,100,VALID,-0.118866,VALID,19.0387,VALID,11,VALID,0.00109012,
2009-01-02, 03:01:00,VALID,915.1,VALID,0,VALID,100,VALID,-0.118866,VALID,19.0354,VALID,5,VALID,0,
2009-01-02, 03:02:00,VALID,915.064,VALID,0,VALID,100,VALID,-0.101885,VALID,19.035,VALID,17,VALID,0,
2009-01-02, 03:03:00,VALID,915.041,VALID,0,VALID,100,VALID,-0.101885,VALID,19.0157,VALID,35,VALID,0,
2009-01-02, 03:04:00,VALID,915.021,VALID,0,VALID,100,VALID,-0.135847,VALID,19.0225,VALID,40,VALID,0,
2009-01-02, 03:05:00,VALID,915,VALID,0,VALID,100,VALID,-0.135847,VALID,19.0392,VALID,33,VALID,0,
2009-01-02, 03:06:00,VALID,914.99,VALID,0,VALID,100,VALID,-0.152827,VALID,19.0132,VALID,24,VALID,0,
2009-01-02, 03:07:00,VALID,914.982,VALID,0,VALID,100,VALID,-0.118866,VALID,18.9928,VALID,28,VALID,0,
2009-01-02, 03:08:00,VALID,914.969,VALID,0,VALID,100,VALID,-0.0169808,VALID,18.9986,VALID,21,VALID,0,
2009-01-02, 03:09:00,VALID,914.952,VALID,0,VALID,100,VALID,-0.0169808,VALID,18.9819,VALID,38,VALID,0,
2009-01-02, 03:10:00,VALID,914.945,VALID,0,VALID,100,VALID,-0.0339617,VALID,18.9918,VALID,22,VALID,0,
2009-01-02, 03:11:00,VALID,914.948,VALID,0,VALID,100,VALID,-0.0169808,VALID,18.9981,VALID,18,VALID,0,
2009-01-02, 03:12:00,VALID,914.935,VALID,0,VALID,100,VALID,0,VALID,19.0046,VALID,18,VALID,0,
2009-01-02, 03:13:00,VALID,914.921,VALID,0,VALID,100,VALID,-0.0169808,VALID,18.9951,VALID,18,VALID,0,
2009-01-02, 03:14:00,VALID,914.902,VALID,0,VALID,100,VALID,-0.0169808,VALID,18.9819,VALID,19,VALID,0.0334579,
2009-01-02, 03:15:00,VALID,914.89,VALID,0,VALID,100,VALID,-0.0169808,VALID,18.9691,VALID,31,VALID,0,
2009-01-02, 03:16:00,VALID,914.898,VALID,0,VALID,100,VALID,-0.0509425,VALID,18.9659,VALID,32,VALID,0,
2009-01-02, 03:17:00,VALID,914.889,VALID,0,VALID,100,VALID,-0.0679233,VALID,18.9589,VALID,32,VALID,0,
2009-01-02, 03:18:00,VALID,914.88,VALID,0,VALID,100,VALID,-0.0509425,VALID,18.9659,VALID,12,VALID,0,
2009-01-02, 03:19:00,VALID,914.887,VALID,0,VALID,100,VALID,-0.0339617,VALID,18.9691,VALID,13,VALID,0,
2009-01-02, 03:20:00,VALID,914.889,VALID,0,VALID,100,VALID,-0.0169808,VALID,18.9629,VALID,16,VALID,0,
2009-01-02, 03:21:00,VALID,914.878,VALID,0,VALID,100,VALID,-0.0679233,VALID,18.9466,VALID,16,VALID,0,
2009-01-02, 03:22:00,VALID,914.876,VALID,0,VALID,100,VALID,0,VALID,18.9462,VALID,16,VALID,0.0284091,
2009-01-02, 03:23:00,VALID,914.886,VALID,0,VALID,100,VALID,0,VALID,18.9402,VALID,16,VALID,0,
2009-01-02, 03:24:00,VALID,914.9,VALID,0,VALID,100,VALID,0,VALID,18.9364,VALID,358,VALID,0,
2009-01-02, 03:25:00,VALID,914.897,VALID,0,VALID,100,VALID,-0.0169808,VALID,18.9334,VALID,355,VALID,0,
2009-01-02, 03:26:00,VALID,914.899,VALID,0,VALID,100,VALID,0,VALID,18.9494,VALID,350,VALID,0,
2009-01-02, 03:27:00,VALID,914.864,VALID,0,VALID,100,VALID,-0.0339617,VALID,18.9564,VALID,340,VALID,0,
2009-01-02, 03:28:00,VALID,914.864,VALID,0,VALID,100,VALID,-0.0169808,VALID,18.9464,VALID,339,VALID,0,
2009-01-02, 03:29:01,VALID,914.883,VALID,0,VALID,100,VALID,-0.0169808,VALID,18.9596,VALID,339,VALID,0,
2009-01-02, 03:30:01,VALID,914.893,VALID,0,VALID,100,VALID,0,VALID,18.9561,VALID,327,VALID,0,
2009-01-02, 03:31:00,VALID,914.908,VALID,0,VALID,100,VALID,0.0339617,VALID,18.9459,VALID,325,VALID,0,
2009-01-02, 03:32:00,VALID,914.906,VALID,0,VALID,100,VALID,-0.0169808,VALID,18.9327,VALID,325,VALID,0,
2009-01-02, 03:33:00,VALID,914.914,VALID,0,VALID,100,VALID,-0.0169808,VALID,18.9499,VALID,322,VALID,0,
2009-01-02, 03:34:00,VALID,914.909,VALID,0,VALID,100,VALID,0,VALID,18.9531,INVALID,360,VALID,0,
2009-01-02, 03:35:00,VALID,914.924,VALID,0,VALID,100,VALID,-0.0169808,VALID,18.93,VALID,314,VALID,0,
2009-01-02, 03:36:00,VALID,914.931,VALID,0,VALID,100,VALID,0,VALID,18.9434,VALID,288,VALID,0,
2009-01-02, 03:37:00,VALID,914.953,VALID,0,VALID,100,VALID,0.0339617,VALID,18.9332,VALID,313,VALID,0,
2009-01-02, 03:38:01,VALID,914.96,VALID,0,VALID,100,VALID,0.101885,VALID,18.9255,VALID,336,VALID,0,
2009-01-02, 03:39:00,VALID,914.995,VALID,0,VALID,100,VALID,0.0849042,VALID,18.9288,VALID,336,VALID,0,
2009-01-02, 03:40:01,VALID,915,VALID,0,VALID,100,VALID,0.101885,VALID,18.9322,VALID,332,VALID,0,
2009-01-02, 03:41:01,VALID,915.034,VALID,0,VALID,100,VALID,0.0339617,VALID,18.9063,VALID,334,VALID,0,
2009-01-02, 03:42:00,VALID,915.03,VALID,0,VALID,100,VALID,0.101885,VALID,18.8963,VALID,341,VALID,0.08125,
2009-01-02, 03:43:00,VALID,915.044,VALID,0,VALID,100,VALID,0.118866,VALID,18.8803,VALID,321,VALID,0.287574,
2009-01-02, 03:44:00,VALID,915.077,VALID,0,VALID,100,VALID,0.0849042,VALID,18.8674,VALID,351,VALID,0,
2009-01-02, 03:45:00,VALID,915.088,VALID,0,VALID,100,VALID,0.101885,VALID,18.8769,VALID,13,VALID,0,
2009-01-02, 03:46:00,VALID,915.091,VALID,0,VALID,100,VALID,0.101885,VALID,18.8836,VALID,24,VALID,0,
2009-01-02, 03:47:00,VALID,915.108,VALID,0,VALID,100,VALID,0.0849042,VALID,18.8734,VALID,18,VALID,0,